[[{"header":{"parameterUnit":"m.s-1","parameterCategory":1,"la1":30.2991,"la2":30.254,"lo1":-89.0895,"lo2":-89.0444,"dy":0.0017,"dx":0.0017,"nx":28,"ny":28,"refTime":"2023-08-11T03:00:00:Z","depth":0,"parameterNumber":2,"parameterNumberName":"U-component_of_WINDS"},"data":[0,0,0,0,0,0,0,0,0,0,0,0,0,0,0,0,0,0,0,0,0,0,0,0,0,0,0,0,0,0,0,0,0,0,0,0,0,0,0,0,0,0,0,0,0,0,0,0,0,0,0,0,0,0,0,0,0,0,3.695,3.6951,0,3.7037,3.7038,3.7039,3.7031,3.703,3.7029,3.7027,3.7121,3.7124,3.7128,0,0,0,0,0,0,0,0,0,0,0,0,0,3.6782,3.6786,3.695,3.6951,3.6952,3.7037,3.7038,3.7039,3.7032,3.703,3.7028,3.7027,3.712,3.7124,3.7129,0,0,0,0,0,0,0,0,0,0,0,0,0,3.6861,3.6787,3.695,3.6958,3.696,3.7036,3.7038,3.7039,3.7032,3.703,3.7028,3.7026,3.7118,3.7124,3.7129,3.7204,0,0,3.7146,3.7149,0,0,0,0,0,0,0,0,3.6857,3.6867,3.6956,3.6958,3.696,3.7021,3.7013,3.7095,3.7032,3.7005,3.7027,3.7025,3.709,3.7097,3.7118,3.7208,3.7212,3.7147,3.715,3.7153,3.7154,0,0,0,0,0,0,0,3.6851,3.6863,3.6984,3.6957,3.696,3.696,3.6969,3.7029,3.7058,3.7007,3.7007,3.7017,3.709,3.7113,3.712,3.7214,3.7147,3.7152,3.7155,3.7157,3.7371,3.7374,0,0,0,0,0,0,3.6843,3.6859,3.6982,3.6987,3.6902,3.6964,3.6974,3.7004,3.7057,3.7063,3.7018,3.7016,3.7104,3.7114,3.7124,3.7215,3.7153,3.7158,3.7161,3.7369,3.7372,3.7374,0,0,0,0,0,0,3.6839,3.6854,3.6978,3.6923,3.6939,3.6969,3.7002,3.7006,3.7029,3.7065,3.7071,3.7036,3.7103,3.7116,3.7184,3.7218,3.716,3.7165,3.7366,3.737,3.7373,3.7399,0,0,0,0,0,0,3.6835,3.6853,3.688,3.6923,3.6942,3.7035,3.7004,3.7009,3.7038,3.7036,3.7083,3.7089,3.7102,3.7176,3.719,3.7225,3.717,3.7363,3.7368,3.7372,3.7395,3.7403,3.7409,0,0,0,0,0,3.6829,3.6884,3.6881,3.6896,3.6976,3.7037,3.7048,3.7061,3.7041,3.7069,3.7093,3.7088,3.7213,3.7183,3.7198,3.7236,3.7361,3.7367,3.7372,3.7392,3.7401,3.7409,0,0,0,0,0,0,3.6845,3.689,3.6887,3.6958,3.6994,3.7036,3.7072,3.707,3.7113,3.7109,3.7125,3.7136,3.7205,3.7228,3.7194,3.7312,3.7285,3.7293,3.7295,3.7304,3.7311,3.7304,3.7174,0,0,0,0,0,3.6857,3.6901,3.6939,3.6998,3.7016,3.7041,3.7068,3.7075,3.7113,3.7129,3.7157,3.7196,3.7244,3.7275,3.7322,3.7399,3.741,3.7433,3.744,3.7446,3.7453,3.7496,3.7507,3.7392,3.7392,3.7392,0,0,3.6882,3.6912,3.6939,3.7002,3.703,3.7078,3.7054,3.7105,3.714,3.7137,3.7203,3.7226,3.727,3.7343,3.7377,3.7364,3.7487,3.7452,3.7456,3.7461,3.7503,3.7514,3.7523,3.7395,3.7395,3.7394,0,0,3.6951,3.6978,3.703,3.706,3.7103,3.7119,3.7132,3.7175,3.7189,3.7256,3.7254,3.7298,3.738,3.7412,3.7439,3.7523,3.752,3.7538,3.7575,3.7617,3.7627,3.7635,3.7665,3.7675,3.7545,3.7545,3.7545,0,3.6977,3.7046,3.7058,3.711,3.7138,3.7137,3.7191,3.7219,3.7276,3.7296,3.7281,3.7385,3.7415,3.7496,3.7516,3.7538,3.7554,3.7532,3.7624,3.7632,3.764,3.7669,3.768,3.7547,3.7547,3.7547,3.7546,0,3.7076,3.7125,3.7163,3.7216,3.7249,3.7302,3.7324,3.7356,3.7361,3.738,3.7448,3.7484,3.7538,3.7558,3.7564,3.7641,3.7631,3.762,3.7592,3.7653,3.768,3.7692,3.755,3.7549,3.7548,3.7548,0,0,3.7156,3.7217,3.7231,3.7255,3.7304,3.7342,3.7396,3.7448,3.7476,3.7516,3.7562,3.7632,3.7622,3.7653,3.7663,3.77,3.7765,3.7684,3.7686,3.7698,3.7853,3.7861,3.7873,3.7763,3.7766,3.7767,3.7849,0,3.723,3.7324,3.7337,3.742,3.7466,3.7467,3.7514,3.755,3.7569,3.7613,3.7635,3.7685,3.7668,3.7686,3.7723,3.7749,3.7796,3.7743,3.7808,3.781,3.7795,3.7887,3.7896,3.7971,3.786,3.7862,3.7863,0,3.7329,3.737,3.7458,3.7501,3.7521,3.7563,3.7612,3.7653,3.7694,3.7706,3.7741,3.7747,3.7804,3.7775,3.7856,3.782,3.7847,3.7864,3.7867,3.7873,3.7839,3.7896,3.7995,3.8006,3.788,3.7879,3.7878,0,3.7379,3.7457,3.7519,3.7541,3.7593,3.7622,3.7646,3.7685,3.7716,3.776,3.778,3.7831,3.7858,3.7898,3.7918,3.7895,3.7998,3.797,3.801,3.8009,3.8031,3.8029,3.8135,3.8049,3.8049,3.8049,3.8049,0,3.7459,3.7513,3.7542,3.7581,3.7642,3.7658,3.7718,3.7741,3.7776,3.7821,3.7825,3.7867,3.789,3.7936,3.7952,3.8017,3.803,3.8042,3.8045,3.8041,3.8039,3.8059,3.8054,3.8052,3.8051,3.8051,3.805,0,3.7525,3.7546,3.7615,3.7659,3.7671,3.7714,3.7753,3.7791,3.7811,3.7867,3.7881,3.7914,3.7968,3.7992,3.8059,3.807,3.8144,3.8144,3.8129,3.813,3.8169,3.8165,3.8291,3.8308,3.8211,3.8212,3.8213,0,3.7574,3.7615,3.7664,3.7693,3.7717,3.7765,3.7796,3.7815,3.7847,3.7899,3.7931,3.7986,3.803,3.8117,3.8147,3.8199,3.82,3.8241,3.8208,3.8203,3.8201,3.8197,3.8202,3.8247,3.8248,3.8248,3.8249,0,3.766,3.7669,3.7713,3.7762,3.7799,3.7839,3.7877,3.7902,3.7927,3.7964,3.8019,3.8053,3.8122,3.8176,3.823,3.8256,3.8257,3.8259,3.8271,3.8267,3.8256,3.8262,3.8145,3.8256,3.8255,3.8255,3.8254,3.8254,3.7719,3.7756,3.7796,3.7846,3.7877,3.7913,3.7951,3.7977,3.8022,3.8078,3.8088,3.8147,3.8189,3.8262,3.829,3.8338,3.8328,3.8345,3.8349,3.8353,3.8355,3.825,3.8348,3.8347,3.8347,3.8347,3.8347,0,3.7805,3.7831,3.7877,3.793,3.797,3.7967,3.8011,3.8044,3.8095,3.8135,3.8178,3.8242,3.8295,3.833,3.8384,3.8415,3.8417,3.8429,3.8426,3.8432,3.8361,3.8345,3.8426,3.8426,3.8426,3.8426,3.8426,3.8426,3.7854,3.7916,3.7931,3.801,3.8036,3.8093,3.8118,3.8152,3.8183,3.8254,3.8298,3.832,3.8358,3.8415,3.8464,3.8473,3.8493,3.8505,3.8513,3.8446,3.8437,3.843,3.8414,3.8509,3.8509,3.8581,3.8581,3.8582]},{"header":{"parameterUnit":"m.s-1","parameterCategory":1,"la1":30.2991,"la2":30.254,"lo1":-89.0895,"lo2":-89.0444,"dy":0.0017,"dx":0.0017,"nx":28,"ny":28,"refTime":"2023-08-11T03:00:00:Z","depth":0,"parameterNumber":3,"parameterNumberName":"V-component_of_WINDS"},"data":[0,0,0,0,0,0,0,0,0,0,0,0,0,0,0,0,0,0,0,0,0,0,0,0,0,0,0,0,0,0,0,0,0,0,0,0,0,0,0,0,0,0,0,0,0,0,0,0,0,0,0,0,0,0,0,0,0,0,2.6793,2.6795,0,2.691,2.6911,2.6913,2.6966,2.6966,2.6965,2.6965,2.7081,2.7084,2.7087,0,0,0,0,0,0,0,0,0,0,0,0,0,2.6611,2.6614,2.6793,2.6795,2.6796,2.691,2.6911,2.6913,2.6966,2.6966,2.6965,2.6965,2.708,2.7083,2.7087,0,0,0,0,0,0,0,0,0,0,0,0,0,2.6705,2.6615,2.6793,2.6836,2.6841,2.691,2.6912,2.6914,2.6966,2.6966,2.6965,2.6965,2.7078,2.7083,2.7088,2.712,0,0,2.7102,2.7104,0,0,0,0,0,0,0,0,2.6699,2.6711,2.6829,2.6833,2.6839,2.6923,2.6889,2.6983,2.6966,2.6918,2.6965,2.6965,2.7028,2.7037,2.7059,2.7126,2.7131,2.7103,2.7105,2.7108,2.7109,0,0,0,0,0,0,0,2.6693,2.6707,2.6839,2.683,2.6837,2.6848,2.6861,2.6907,2.6973,2.6922,2.6927,2.694,2.7031,2.7054,2.7062,2.7132,2.7102,2.7107,2.711,2.7111,2.7229,2.723,0,0,0,0,0,0,2.668,2.6701,2.6836,2.6843,2.6768,2.6851,2.6866,2.6896,2.6972,2.6984,2.694,2.6942,2.7046,2.7057,2.7066,2.7109,2.7107,2.7112,2.7115,2.7229,2.7229,2.723,0,0,0,0,0,0,2.6676,2.6691,2.6831,2.6773,2.6792,2.6855,2.6888,2.6899,2.6922,2.6986,2.6997,2.6952,2.7047,2.706,2.7106,2.7114,2.7114,2.7118,2.7229,2.7229,2.723,2.7194,0,0,0,0,0,0,2.667,2.669,2.6704,2.6773,2.6795,2.6871,2.6889,2.6901,2.6931,2.6935,2.7,2.7011,2.7048,2.7099,2.7111,2.712,2.7122,2.7228,2.7229,2.7229,2.7195,2.7193,2.7192,0,0,0,0,0,2.6664,2.6689,2.6705,2.6721,2.6815,2.6871,2.6883,2.6926,2.6931,2.6946,2.6986,2.7009,2.7111,2.7103,2.7117,2.7128,2.7228,2.7229,2.7229,2.7196,2.7194,2.7192,0,0,0,0,0,0,2.6619,2.6699,2.6717,2.6766,2.6811,2.688,2.6899,2.6923,2.6967,2.6968,2.7018,2.7032,2.7074,2.7106,2.7096,2.7162,2.7171,2.7175,2.7141,2.7139,2.7138,2.713,2.7126,0,0,0,0,0,2.6614,2.6655,2.6723,2.6759,2.6781,2.6836,2.6862,2.6891,2.694,2.6959,2.7003,2.7047,2.7089,2.7116,2.7158,2.7199,2.7213,2.7213,2.7212,2.721,2.7213,2.7235,2.7235,2.7232,2.7232,2.7232,0,0,2.6606,2.6655,2.6678,2.6751,2.679,2.6829,2.6852,2.6893,2.6922,2.6965,2.7012,2.7045,2.7098,2.7141,2.7163,2.7169,2.7217,2.7211,2.7209,2.7213,2.7236,2.7236,2.7236,2.7232,2.7232,2.7232,0,0,2.6612,2.6653,2.6688,2.6726,2.6784,2.682,2.6828,2.6893,2.6917,2.6965,2.6997,2.7031,2.7103,2.7139,2.7167,2.7183,2.7205,2.7195,2.7187,2.7208,2.7208,2.7209,2.7214,2.7215,2.7197,2.7197,2.7197,0,2.6594,2.6656,2.6702,2.6741,2.6772,2.6813,2.6847,2.6881,2.6949,2.6968,2.6974,2.7064,2.7103,2.7154,2.7158,2.7179,2.7189,2.7188,2.7205,2.7206,2.7207,2.7212,2.7214,2.7195,2.7195,2.7195,2.7196,0,2.6631,2.6673,2.6694,2.676,2.6792,2.6829,2.6878,2.6905,2.693,2.6965,2.7012,2.7059,2.7111,2.7125,2.715,2.718,2.7182,2.7196,2.7206,2.7205,2.7211,2.7213,2.7193,2.7193,2.7194,2.7194,0,0,2.6613,2.6703,2.6709,2.6739,2.6805,2.6838,2.6874,2.6926,2.6948,2.6993,2.7024,2.7083,2.7095,2.7126,2.7155,2.7174,2.7182,2.7185,2.7187,2.7183,2.7217,2.7206,2.7208,2.7197,2.7198,2.7198,2.7212,0,2.6627,2.6697,2.6738,2.6791,2.6829,2.6867,2.6899,2.6942,2.6974,2.701,2.7045,2.7086,2.71,2.7119,2.7139,2.7177,2.719,2.7176,2.7225,2.7226,2.7211,2.7211,2.7201,2.7212,2.7214,2.7215,2.7215,0,2.6654,2.6699,2.6755,2.6815,2.6833,2.6861,2.6911,2.6945,2.6993,2.7015,2.7049,2.7078,2.7116,2.7122,2.7174,2.7164,2.7186,2.7207,2.7209,2.7215,2.7221,2.7217,2.7216,2.7218,2.7219,2.7219,2.7219,0,2.6634,2.6708,2.6752,2.6776,2.6847,2.6866,2.6896,2.6944,2.6972,2.7014,2.7033,2.7078,2.7103,2.7137,2.7177,2.7178,2.7224,2.7234,2.7243,2.7242,2.7252,2.7251,2.7254,2.7265,2.7265,2.7265,2.7265,0,2.6646,2.6679,2.6744,2.677,2.6807,2.6853,2.6888,2.6921,2.6963,2.6995,2.7029,2.7058,2.7109,2.7143,2.7174,2.7211,2.7222,2.724,2.7248,2.7238,2.7235,2.7253,2.7253,2.7266,2.7265,2.7265,2.7265,0,2.6631,2.6676,2.6725,2.6789,2.6805,2.6829,2.6883,2.6909,2.6942,2.6982,2.6994,2.7046,2.7088,2.7131,2.7188,2.7208,2.7245,2.7255,2.7229,2.7234,2.724,2.7238,2.7255,2.7259,2.7267,2.7267,2.7267,0,2.6636,2.6662,2.6728,2.6753,2.6782,2.6821,2.685,2.6895,2.6922,2.6978,2.6997,2.7042,2.708,2.7145,2.7187,2.723,2.7242,2.7244,2.7248,2.7236,2.7241,2.7239,2.7242,2.7243,2.7243,2.7242,2.7242,0,2.6639,2.666,2.6701,2.6748,2.6782,2.6821,2.6862,2.6879,2.6931,2.696,2.7005,2.7034,2.7092,2.7135,2.7183,2.7212,2.7235,2.724,2.7245,2.7234,2.7218,2.7227,2.7225,2.724,2.724,2.7241,2.7241,2.7241,2.6635,2.6659,2.6709,2.6752,2.6788,2.6824,2.6852,2.6888,2.6926,2.6978,2.7001,2.7045,2.709,2.7156,2.7185,2.7218,2.7225,2.7231,2.7232,2.7233,2.7231,2.7212,2.7227,2.7227,2.7227,2.7227,2.7227,0,2.664,2.6673,2.6713,2.6769,2.6802,2.6822,2.6867,2.6893,2.6932,2.6973,2.701,2.7059,2.7101,2.7145,2.7189,2.7207,2.7219,2.7217,2.7216,2.7223,2.7223,2.7215,2.7207,2.7207,2.7207,2.7207,2.7207,2.7207,2.6646,2.6688,2.6714,2.6773,2.6806,2.6851,2.6874,2.6908,2.694,2.6994,2.703,2.7059,2.71,2.7147,2.7186,2.7198,2.7212,2.7207,2.7222,2.7221,2.7223,2.7224,2.7217,2.721,2.721,2.7219,2.7219,2.7219]}]]